INMARSAT 5-F1           
1 39476U 13073A   19266.01658000  .00000019  00000-0  00000+0 0  9996
2 39476   0.0182 185.6335 0000214 108.1903 136.3438  1.00270530 21270
BREEZE-M DEB [TANK]     
1 39477U 13073B   19264.77969639  .00000023  00000-0  45652-4 0  9993
2 39477  50.7528  88.9324 5144212  13.6379 356.2671  5.30650406111586
BREEZE-M R/B            
1 39494U 13073C   19263.22645957 -.00000257  00000-0 -36074+0 0  9999
2 39494  29.0293  55.0871 7650976 158.5012 271.3576  1.09863445 22267